,,PA_Meas_PMT16A,,PR_Meas_QMR101_102,,RH_Meas_QMH101,,SR_Meas_QMS101,,TA_Meas_QMH101,,GenWind,,GenWind,
time,status,PA,status,PR,status,RH,status,SR,status,TA,status,DirAvg,status,SpdAvg,
2009-11-25, 00:00:05,VALID,919.256,VALID,0,VALID,95.0183,VALID,0,VALID,20.1693,VALID,45,VALID,1.39023,
2009-11-25, 00:01:05,VALID,919.264,VALID,0,VALID,95.003,VALID,0,VALID,20.2098,VALID,48,VALID,0.865625,
2009-11-25, 00:02:05,VALID,919.184,VALID,0,VALID,94.9649,VALID,0,VALID,20.2083,VALID,48,VALID,1.23984,
2009-11-25, 00:03:05,VALID,919.2,VALID,0,VALID,94.9649,VALID,0,VALID,20.2083,VALID,48,VALID,0.436328,
2009-11-25, 00:04:05,VALID,919.204,VALID,0,VALID,94.9878,VALID,0,VALID,20.1888,VALID,48,VALID,1.45039,
2009-11-25, 00:05:05,VALID,919.193,VALID,0,VALID,95.0183,VALID,0,VALID,20.1888,VALID,48,VALID,1.38711,
2009-11-25, 00:06:05,VALID,919.168,VALID,0,VALID,95.0335,VALID,0,VALID,20.1888,VALID,48,VALID,1.2125,
2009-11-25, 00:07:05,VALID,919.162,VALID,0,VALID,94.9725,VALID,0,VALID,20.1693,VALID,26,VALID,1.77539,
2009-11-25, 00:08:05,VALID,919.162,VALID,0,VALID,94.9801,VALID,0,VALID,20.1693,VALID,23,VALID,1.0875,
2009-11-25, 00:09:05,VALID,919.135,VALID,0,VALID,95.003,VALID,0,VALID,20.1693,VALID,28,VALID,1.90781,
2009-11-25, 00:10:05,VALID,919.138,VALID,0,VALID,94.9801,VALID,0,VALID,20.1693,VALID,45,VALID,0.631641,
2009-11-25, 00:11:05,VALID,919.131,VALID,0,VALID,94.9344,VALID,0,VALID,20.1498,VALID,52,VALID,1.65937,
2009-11-25, 00:12:05,VALID,919.123,VALID,0,VALID,94.8582,VALID,0,VALID,20.1498,VALID,42,VALID,1.18047,
2009-11-25, 00:13:05,VALID,919.127,VALID,0,VALID,94.7896,VALID,0,VALID,20.1498,VALID,7,VALID,1.35352,
2009-11-25, 00:14:05,VALID,919.121,VALID,0,VALID,94.6981,VALID,0,VALID,20.1498,VALID,13,VALID,0.623047,
2009-11-25, 00:15:05,VALID,919.145,VALID,0,VALID,94.66,VALID,0,VALID,20.1483,VALID,13,VALID,1.16367,
2009-11-25, 00:16:05,VALID,919.122,VALID,0,VALID,94.6066,VALID,0,VALID,20.1483,VALID,39,VALID,0.718359,
2009-11-25, 00:17:05,VALID,919.056,VALID,0,VALID,94.6676,VALID,0,VALID,20.1288,VALID,39,VALID,0.333984,
2009-11-25, 00:18:05,VALID,919.082,VALID,0,VALID,94.5227,VALID,0.107441,VALID,20.1077,VALID,70,VALID,1.22617,
2009-11-25, 00:19:05,VALID,919.028,VALID,0,VALID,94.477,VALID,0.107441,VALID,20.1693,VALID,4,VALID,0.524219,
2009-11-25, 00:20:05,VALID,919.041,VALID,0,VALID,94.3855,VALID,0,VALID,20.1483,VALID,30,VALID,0.880078,
2009-11-25, 00:21:05,VALID,919.011,VALID,0,VALID,94.4008,VALID,0,VALID,20.1288,VALID,24,VALID,1.34883,
2009-11-25, 00:22:05,VALID,919.017,VALID,0,VALID,94.5685,VALID,0,VALID,20.1288,VALID,22,VALID,1.05508,
2009-11-25, 00:23:05,VALID,919.013,VALID,0,VALID,94.6447,VALID,0,VALID,20.1093,VALID,10,VALID,0.671484,
2009-11-25, 00:24:05,VALID,918.997,VALID,0,VALID,94.6828,VALID,0,VALID,20.0898,VALID,10,VALID,1.20039,
2009-11-25, 00:25:05,VALID,918.975,VALID,0,VALID,94.6752,VALID,0,VALID,20.0703,VALID,10,VALID,1.20625,
2009-11-25, 00:26:05,VALID,918.969,VALID,0,VALID,94.7438,VALID,0,VALID,20.0313,VALID,3,VALID,1.17148,
2009-11-25, 00:27:05,VALID,918.934,VALID,0,VALID,94.8505,VALID,0,VALID,20.0328,VALID,349,VALID,1.27109,
2009-11-25, 00:28:05,VALID,918.928,VALID,0,VALID,94.942,VALID,0,VALID,20.0118,VALID,310,VALID,0.739062,
2009-11-25, 00:29:05,VALID,918.932,VALID,0,VALID,94.8277,VALID,0,VALID,19.9923,VALID,8,VALID,1.02383,
2009-11-25, 00:30:05,VALID,918.925,VALID,0,VALID,94.6752,VALID,0,VALID,19.9923,VALID,19,VALID,1.05313,
2009-11-25, 00:31:05,VALID,918.915,VALID,0,VALID,94.7438,VALID,0,VALID,19.9923,VALID,19,VALID,1.04844,
2009-11-25, 00:32:05,VALID,918.925,VALID,0,VALID,94.6447,VALID,0,VALID,19.9923,VALID,14,VALID,1.36953,
2009-11-25, 00:33:05,VALID,918.943,VALID,0,VALID,94.6218,VALID,0,VALID,19.9743,VALID,344,VALID,1.10117,
2009-11-25, 00:34:05,VALID,918.901,VALID,0,VALID,94.5456,VALID,0,VALID,19.9533,VALID,329,VALID,0.645703,
2009-11-25, 00:35:05,VALID,918.869,VALID,0,VALID,94.5227,VALID,0,VALID,19.9728,VALID,37,VALID,1.30859,
2009-11-25, 00:36:05,VALID,918.861,VALID,0,VALID,94.477,VALID,0,VALID,19.9728,VALID,66,VALID,0.635156,
2009-11-25, 00:37:05,VALID,918.803,VALID,0,VALID,94.3855,VALID,0,VALID,19.9728,VALID,57,VALID,1.13086,
2009-11-25, 00:38:05,VALID,918.776,VALID,0,VALID,94.3703,VALID,0,VALID,19.9743,VALID,43,VALID,1.67031,
2009-11-25, 00:39:05,VALID,918.774,VALID,0,VALID,94.4236,VALID,0,VALID,19.9728,VALID,340,VALID,0.9875,
2009-11-25, 00:40:05,VALID,918.729,VALID,0,VALID,94.3779,VALID,0,VALID,19.9533,VALID,29,VALID,1.69023,
2009-11-25, 00:41:05,VALID,918.757,VALID,0,VALID,94.1797,VALID,0,VALID,19.9143,VALID,33,VALID,1.16719,
2009-11-25, 00:42:05,VALID,918.765,VALID,0,VALID,94.2102,VALID,0,VALID,19.9143,VALID,16,VALID,0.330469,
2009-11-25, 00:43:05,VALID,918.723,VALID,0,VALID,94.2483,VALID,0,VALID,19.9143,VALID,16,VALID,0.352344,
2009-11-25, 00:44:05,VALID,918.733,VALID,0,VALID,94.1339,VALID,0,VALID,19.9353,VALID,63,VALID,0.784375,
2009-11-25, 00:45:05,VALID,918.679,VALID,0,VALID,94.0425,VALID,0,VALID,19.9158,VALID,63,VALID,1.13711,
2009-11-25, 00:46:05,VALID,918.652,VALID,0,VALID,94.2102,VALID,0,VALID,19.8558,VALID,63,VALID,1.19961,
2009-11-25, 00:47:05,VALID,918.657,VALID,0,VALID,94.3093,VALID,0,VALID,19.8378,VALID,62,VALID,0.520312,
2009-11-25, 00:48:05,VALID,918.641,VALID,0,VALID,94.3169,VALID,0,VALID,19.7973,VALID,27,VALID,1.32891,
2009-11-25, 00:49:05,VALID,918.674,VALID,0,VALID,94.3703,VALID,0,VALID,19.7778,VALID,26,VALID,0.262109,
2009-11-25, 00:50:05,VALID,918.677,VALID,0,VALID,94.4541,VALID,0,VALID,19.7583,VALID,26,VALID,0.395312,
2009-11-25, 00:51:05,VALID,918.694,VALID,0,VALID,94.4541,VALID,0,VALID,19.7403,VALID,26,VALID,0.270703,
2009-11-25, 00:52:05,VALID,918.682,VALID,0,VALID,94.538,VALID,0.107441,VALID,19.6998,VALID,26,VALID,0.792578,
2009-11-25, 00:53:05,VALID,918.639,VALID,0,VALID,94.4313,VALID,0,VALID,19.6803,VALID,20,VALID,0.769922,
2009-11-25, 00:54:05,VALID,918.643,VALID,0,VALID,94.8963,VALID,0,VALID,19.6818,VALID,24,VALID,1.06602,
2009-11-25, 00:55:05,VALID,918.613,VALID,0,VALID,94.8048,VALID,0,VALID,19.6428,VALID,42,VALID,1.2707,
2009-11-25, 00:56:05,VALID,918.628,VALID,0,VALID,94.8277,VALID,0,VALID,19.6428,VALID,49,VALID,0.488672,
2009-11-25, 00:57:05,VALID,918.622,VALID,0,VALID,94.8734,VALID,0.107441,VALID,19.6428,VALID,49,VALID,0.735547,
2009-11-25, 00:58:05,VALID,918.583,VALID,0,VALID,94.8429,VALID,0.107441,VALID,19.6038,VALID,49,VALID,1.07461,
2009-11-25, 00:59:05,VALID,918.589,VALID,0,VALID,94.8963,VALID,0,VALID,19.5843,VALID,49,VALID,0.281641,
2009-11-25, 01:00:05,VALID,918.606,VALID,0,VALID,94.7514,VALID,0,VALID,19.5648,VALID,49,VALID,0.130469,
2009-11-25, 01:01:05,VALID,918.614,VALID,0,VALID,94.6981,VALID,0,VALID,19.5438,VALID,49,VALID,0.305078,
2009-11-25, 01:02:05,VALID,918.625,VALID,0,VALID,94.6218,VALID,0,VALID,19.5243,VALID,49,VALID,0.719141,
2009-11-25, 01:03:05,VALID,918.585,VALID,0,VALID,94.6905,VALID,0,VALID,19.5048,VALID,49,VALID,0.605078,
2009-11-25, 01:04:05,VALID,918.543,VALID,0,VALID,94.7667,VALID,0,VALID,19.4853,VALID,53,VALID,1.72773,
2009-11-25, 01:05:05,VALID,918.589,VALID,0,VALID,94.6066,VALID,0,VALID,19.5063,VALID,14,VALID,0.217578,
2009-11-25, 01:06:05,VALID,918.558,VALID,0,VALID,94.7057,VALID,0.107441,VALID,19.5063,VALID,14,VALID,0.901172,
2009-11-25, 01:07:05,VALID,918.568,VALID,0,VALID,94.5609,VALID,0,VALID,19.5048,VALID,34,VALID,0.975781,
2009-11-25, 01:08:05,VALID,918.565,VALID,0,VALID,94.294,VALID,0,VALID,19.4853,VALID,34,VALID,0.838281,
2009-11-25, 01:09:05,VALID,918.563,VALID,0,VALID,94.2483,VALID,0,VALID,19.4868,VALID,324,VALID,0.815625,
2009-11-25, 01:10:05,VALID,918.519,VALID,0,VALID,94.1187,VALID,0,VALID,19.4658,VALID,290,VALID,0.885938,
2009-11-25, 01:11:05,VALID,918.551,VALID,0,VALID,94.1873,VALID,0,VALID,19.4868,VALID,290,VALID,0.716406,
2009-11-25, 01:12:05,VALID,918.577,VALID,0,VALID,94.2712,VALID,0,VALID,19.4868,VALID,291,VALID,0.651172,
2009-11-25, 01:13:05,VALID,918.595,VALID,0,VALID,94.2102,VALID,0,VALID,19.4658,VALID,323,VALID,0.297266,
2009-11-25, 01:14:05,VALID,918.552,VALID,0,VALID,94.1644,VALID,0,VALID,19.4673,VALID,29,VALID,0.138672,
2009-11-25, 01:15:05,VALID,918.548,VALID,0,VALID,94.2407,VALID,0,VALID,19.4463,VALID,29,VALID,0.0714844,
2009-11-25, 01:16:05,VALID,918.521,VALID,0,VALID,94.2864,VALID,0,VALID,19.4478,VALID,29,VALID,0.402734,
2009-11-25, 01:17:05,VALID,918.53,VALID,0,VALID,94.2635,VALID,0,VALID,19.4478,VALID,29,VALID,0.604297,
2009-11-25, 01:18:05,VALID,918.525,VALID,0,VALID,94.4541,VALID,0,VALID,19.4283,VALID,29,VALID,0.895312,
2009-11-25, 01:19:04,VALID,918.471,VALID,0,VALID,94.4084,VALID,0,VALID,19.3893,VALID,29,VALID,1.13359,
2009-11-25, 01:20:04,VALID,918.471,VALID,0,VALID,94.416,VALID,0,VALID,19.3893,VALID,29,VALID,0.570703,
2009-11-25, 01:21:04,VALID,918.462,VALID,0,VALID,94.4008,VALID,0,VALID,19.3698,VALID,29,VALID,0.667578,
2009-11-25, 01:22:04,VALID,918.429,VALID,0,VALID,94.4694,VALID,0,VALID,19.3698,VALID,29,VALID,0.953125,
2009-11-25, 01:23:04,VALID,918.447,VALID,0,VALID,94.416,VALID,0,VALID,19.3503,VALID,29,VALID,0.328906,
2009-11-25, 01:24:04,VALID,918.413,VALID,0,VALID,94.5913,VALID,0,VALID,19.3503,VALID,29,VALID,0.889844,
2009-11-25, 01:25:04,VALID,918.4,VALID,0,VALID,94.4999,VALID,0,VALID,19.3308,VALID,29,VALID,0.517969,
2009-11-25, 01:26:04,VALID,918.412,VALID,0,VALID,94.4999,VALID,0,VALID,19.3113,VALID,29,VALID,0.909375,
2009-11-25, 01:27:04,VALID,918.395,VALID,0,VALID,94.5227,VALID,0,VALID,19.2918,VALID,29,VALID,0.316797,
2009-11-25, 01:28:04,VALID,918.387,VALID,0,VALID,94.3779,VALID,0,VALID,19.2514,VALID,29,VALID,0.138672,
2009-11-25, 01:29:04,VALID,918.387,VALID,0,VALID,94.477,VALID,0,VALID,19.2528,VALID,29,VALID,0.677344,
2009-11-25, 01:30:04,VALID,918.373,VALID,0,VALID,94.5761,VALID,0,VALID,19.2514,VALID,29,VALID,0.707031,
2009-11-25, 01:31:04,VALID,918.409,VALID,0,VALID,94.2483,VALID,0,VALID,19.2124,VALID,29,VALID,0.664063,
2009-11-25, 01:32:04,VALID,918.408,VALID,0,VALID,94.4846,VALID,0,VALID,19.2528,VALID,29,VALID,0.949219,
2009-11-25, 01:33:04,VALID,918.326,VALID,0,VALID,94.2026,VALID,0,VALID,19.2528,VALID,62,VALID,0.68125,
2009-11-25, 01:34:04,VALID,918.372,VALID,0,VALID,93.9738,VALID,0,VALID,19.2528,VALID,11,VALID,0.861719,
2009-11-25, 01:35:04,VALID,918.344,VALID,0,VALID,94.2559,VALID,0,VALID,19.2319,VALID,10,VALID,1.66797,
2009-11-25, 01:36:04,VALID,918.37,VALID,0,VALID,94.3779,VALID,0,VALID,19.2528,VALID,356,VALID,1.25156,
2009-11-25, 01:37:04,VALID,918.333,VALID,0,VALID,94.1797,VALID,0,VALID,19.2918,VALID,298,VALID,2.02578,
2009-11-25, 01:38:04,VALID,918.336,VALID,0,VALID,93.9205,VALID,0,VALID,19.3489,VALID,24,VALID,0.826953,
2009-11-25, 01:39:04,VALID,918.359,VALID,0,VALID,93.951,VALID,0,VALID,19.3684,VALID,24,VALID,0.460938,
2009-11-25, 01:40:04,VALID,918.329,VALID,0,VALID,93.8214,VALID,0,VALID,19.3698,VALID,24,VALID,0.939453,
2009-11-25, 01:41:04,VALID,918.359,VALID,0,VALID,93.7528,VALID,0,VALID,19.3294,VALID,24,VALID,1.01211,
2009-11-25, 01:42:04,VALID,918.321,VALID,0,VALID,93.9205,VALID,0,VALID,19.3294,VALID,26,VALID,1.59063,
2009-11-25, 01:43:04,VALID,918.323,VALID,0,VALID,93.8443,VALID,0,VALID,19.3503,VALID,57,VALID,1.23398,
2009-11-25, 01:44:04,VALID,918.316,VALID,0,VALID,93.6003,VALID,0,VALID,19.3893,VALID,57,VALID,0.301172,
2009-11-25, 01:45:04,VALID,918.303,VALID,0,VALID,93.3716,VALID,0,VALID,19.4088,VALID,48,VALID,2.11445,
2009-11-25, 01:46:04,VALID,918.322,VALID,0,VALID,93.4021,VALID,0,VALID,19.4268,VALID,329,VALID,1.06484,
2009-11-25, 01:47:04,VALID,918.283,VALID,0,VALID,93.1963,VALID,0,VALID,19.4673,VALID,327,VALID,0.887109,
2009-11-25, 01:48:04,VALID,918.236,VALID,0,VALID,92.9447,VALID,0.107441,VALID,19.4658,VALID,325,VALID,0.717578,
2009-11-25, 01:49:04,VALID,918.215,VALID,0,VALID,93.2268,VALID,0,VALID,19.4268,VALID,281,VALID,1.14961,
2009-11-25, 01:50:04,VALID,918.237,VALID,0,VALID,93.2954,VALID,0,VALID,19.4478,VALID,31,VALID,1.37461,
2009-11-25, 01:51:04,VALID,918.21,VALID,0,VALID,93.2649,VALID,0,VALID,19.4283,VALID,2,VALID,1.40586,
2009-11-25, 01:52:04,VALID,918.194,VALID,0,VALID,93.1734,VALID,0,VALID,19.4088,VALID,1,VALID,0.881641,
2009-11-25, 01:53:04,VALID,918.155,VALID,0,VALID,93.2877,VALID,0,VALID,19.3893,VALID,1,VALID,1.38867,
2009-11-25, 01:54:04,VALID,918.133,VALID,0,VALID,93.1963,VALID,0,VALID,19.3684,VALID,1,VALID,1.37344,
2009-11-25, 01:55:04,VALID,918.137,VALID,0,VALID,93.0667,VALID,0,VALID,19.4088,VALID,1,VALID,0.75625,
2009-11-25, 01:56:04,VALID,918.132,VALID,0,VALID,92.8303,VALID,0.107441,VALID,19.4088,VALID,1,VALID,1.51719,
2009-11-25, 01:57:04,VALID,918.16,VALID,0,VALID,92.8989,VALID,0,VALID,19.4088,VALID,356,VALID,1.35977,
2009-11-25, 01:58:04,VALID,918.128,VALID,0,VALID,92.8837,VALID,0,VALID,19.3893,VALID,352,VALID,1.47578,
2009-11-25, 01:59:04,VALID,918.142,VALID,0,VALID,92.8761,VALID,0.107441,VALID,19.3684,VALID,352,VALID,0.8125,
2009-11-25, 02:00:04,VALID,918.13,VALID,0,VALID,93.1734,VALID,0,VALID,19.3503,VALID,352,VALID,1.38789,
2009-11-25, 02:01:04,VALID,918.102,VALID,0,VALID,93.2954,VALID,0,VALID,19.3308,VALID,352,VALID,1.58281,
2009-11-25, 02:02:04,VALID,918.086,VALID,0,VALID,93.4402,VALID,0,VALID,19.2709,VALID,353,VALID,1.07695,
2009-11-25, 02:03:04,VALID,918.061,VALID,0,VALID,93.6003,VALID,0,VALID,19.2528,VALID,352,VALID,0.751953,
2009-11-25, 02:04:04,VALID,918.038,VALID,0,VALID,93.6537,VALID,0,VALID,19.2124,VALID,38,VALID,1.03242,
2009-11-25, 02:05:04,VALID,918.017,VALID,0,VALID,93.9052,VALID,0,VALID,19.2334,VALID,273,VALID,0.821484,
2009-11-25, 02:06:04,VALID,917.995,VALID,0,VALID,93.6232,VALID,0,VALID,19.2124,VALID,19,VALID,0.364062,
2009-11-25, 02:07:04,VALID,917.988,VALID,0,VALID,93.7147,VALID,0,VALID,19.2124,VALID,19,VALID,0.259375,
2009-11-25, 02:08:04,VALID,917.997,VALID,0,VALID,93.646,VALID,0,VALID,19.2139,VALID,19,VALID,0.521484,
2009-11-25, 02:09:04,VALID,917.979,VALID,0,VALID,93.6918,VALID,0,VALID,19.1944,VALID,19,VALID,0,
2009-11-25, 02:10:04,VALID,917.976,VALID,0,VALID,93.8061,VALID,0,VALID,19.1944,VALID,19,VALID,0.0703125,
2009-11-25, 02:11:04,VALID,917.95,VALID,0,VALID,93.7833,VALID,0,VALID,19.1749,VALID,19,VALID,0.24375,
2009-11-25, 02:12:04,VALID,917.911,VALID,0,VALID,93.8519,VALID,0,VALID,19.1359,VALID,19,VALID,0.0710938,
2009-11-25, 02:13:04,VALID,917.899,VALID,0,VALID,94.1568,VALID,0,VALID,19.1554,VALID,80,VALID,0.496875,
2009-11-25, 02:14:04,VALID,917.835,VALID,0,VALID,94.2483,VALID,0,VALID,19.1359,VALID,80,VALID,0.475781,
2009-11-25, 02:15:04,VALID,917.871,VALID,0,VALID,93.5164,VALID,0,VALID,19.1763,VALID,98,VALID,0.343359,
2009-11-25, 02:16:04,VALID,917.831,VALID,0,VALID,93.6308,VALID,0,VALID,19.1554,VALID,98,VALID,0.64375,
2009-11-25, 02:17:04,VALID,917.835,VALID,0,VALID,93.9586,VALID,0,VALID,19.1359,VALID,98,VALID,0.0941406,
2009-11-25, 02:18:04,VALID,917.8,VALID,0,VALID,94.2635,VALID,0,VALID,19.1164,VALID,98,VALID,0.407422,
2009-11-25, 02:19:04,VALID,917.757,VALID,0,VALID,94.2788,VALID,0,VALID,19.0954,VALID,98,VALID,0.572656,
2009-11-25, 02:20:04,VALID,917.736,VALID,0,VALID,94.0425,VALID,0,VALID,19.1164,VALID,249,VALID,0.715234,
2009-11-25, 02:21:04,VALID,917.713,VALID,0,VALID,93.9967,VALID,0,VALID,19.1149,VALID,20,VALID,1.11914,
2009-11-25, 02:22:04,VALID,917.696,VALID,0,VALID,94.0958,VALID,0,VALID,19.0954,VALID,30,VALID,1.31367,
2009-11-25, 02:23:04,VALID,917.667,VALID,0,VALID,94.4465,VALID,0,VALID,19.1359,VALID,37,VALID,1.45078,
2009-11-25, 02:24:04,VALID,917.692,VALID,0,VALID,94.3245,VALID,0,VALID,19.1749,VALID,37,VALID,1.35273,
2009-11-25, 02:25:04,VALID,917.73,VALID,0,VALID,94.0348,VALID,0,VALID,19.2139,VALID,37,VALID,0.595703,
2009-11-25, 02:26:04,VALID,917.718,VALID,0,VALID,93.9205,VALID,0,VALID,19.2528,VALID,37,VALID,0.850781,
2009-11-25, 02:27:04,VALID,917.689,VALID,0,VALID,93.9052,VALID,0,VALID,19.2528,VALID,37,VALID,0.819531,
2009-11-25, 02:28:04,VALID,917.691,VALID,0,VALID,93.7299,VALID,0,VALID,19.2334,VALID,37,VALID,0.492578,
2009-11-25, 02:29:04,VALID,917.687,VALID,0,VALID,93.8824,VALID,0,VALID,19.2139,VALID,37,VALID,0.642187,
2009-11-25, 02:30:04,VALID,917.7,VALID,0,VALID,93.9434,VALID,0,VALID,19.1749,VALID,37,VALID,0.314063,
2009-11-25, 02:31:04,VALID,917.704,VALID,0,VALID,94.1721,VALID,0,VALID,19.1749,VALID,37,VALID,0,
2009-11-25, 02:32:04,VALID,917.681,VALID,0,VALID,94.3931,VALID,0,VALID,19.1539,VALID,37,VALID,0.162891,
2009-11-25, 02:33:04,VALID,917.665,VALID,0,VALID,94.3855,VALID,0,VALID,19.1554,VALID,37,VALID,0.558594,
2009-11-25, 02:34:04,VALID,917.649,VALID,0,VALID,94.5075,VALID,0.107441,VALID,19.1749,VALID,37,VALID,0.390234,
2009-11-25, 02:35:04,VALID,917.61,VALID,0,VALID,94.6371,VALID,0,VALID,19.1734,VALID,37,VALID,1.06992,
2009-11-25, 02:36:04,VALID,917.601,VALID,0,VALID,94.6981,VALID,0.107441,VALID,19.1944,VALID,291,VALID,0.711328,
2009-11-25, 02:37:04,VALID,917.619,VALID,0,VALID,94.4694,VALID,0.107441,VALID,19.2124,VALID,290,VALID,0.392578,
2009-11-25, 02:38:04,VALID,917.592,VALID,0,VALID,94.3093,VALID,0.107441,VALID,19.2514,VALID,290,VALID,0.790234,
2009-11-25, 02:39:04,VALID,917.595,VALID,0,VALID,94.2407,VALID,0,VALID,19.2904,VALID,290,VALID,0.739062,
2009-11-25, 02:40:04,VALID,917.526,VALID,0,VALID,94.1492,VALID,0,VALID,19.3308,VALID,290,VALID,1.1918,
2009-11-25, 02:41:04,VALID,917.508,VALID,0,VALID,93.7528,VALID,0,VALID,19.3294,VALID,6,VALID,1.28125,
2009-11-25, 02:42:04,VALID,917.502,VALID,0,VALID,93.5469,VALID,0,VALID,19.4088,VALID,304,VALID,0.564844,
2009-11-25, 02:43:04,VALID,917.497,VALID,0,VALID,93.4707,VALID,0,VALID,19.4463,VALID,46,VALID,0.726172,
2009-11-25, 02:44:04,VALID,917.479,VALID,0,VALID,93.5164,VALID,0,VALID,19.4673,VALID,46,VALID,0.612109,
2009-11-25, 02:45:04,VALID,917.458,VALID,0,VALID,93.5241,VALID,0,VALID,19.4463,VALID,46,VALID,0.301172,
2009-11-25, 02:46:04,VALID,917.447,VALID,0,VALID,93.5241,VALID,0,VALID,19.4478,VALID,46,VALID,1.04844,
2009-11-25, 02:47:04,VALID,917.394,VALID,0,VALID,93.6384,VALID,0,VALID,19.4283,VALID,47,VALID,1.38477,
2009-11-25, 02:48:04,VALID,917.414,VALID,0,VALID,93.3182,VALID,0,VALID,19.4268,VALID,355,VALID,1.24727,
2009-11-25, 02:49:04,VALID,917.443,VALID,0,VALID,93.1658,VALID,0,VALID,19.4658,VALID,15,VALID,1.30078,
2009-11-25, 02:50:04,VALID,917.428,VALID,0,VALID,93.1581,VALID,0,VALID,19.4853,VALID,29,VALID,0.481641,
2009-11-25, 02:51:04,VALID,917.44,VALID,0,VALID,93.0819,VALID,0,VALID,19.5258,VALID,29,VALID,0.678906,
2009-11-25, 02:52:04,VALID,917.445,VALID,0,VALID,92.9904,VALID,0,VALID,19.5453,VALID,29,VALID,0.65,
2009-11-25, 02:53:04,VALID,917.39,VALID,0,VALID,92.7084,VALID,0,VALID,19.5453,VALID,29,VALID,0.457031,
2009-11-25, 02:54:04,VALID,917.389,VALID,0,VALID,92.7693,VALID,0,VALID,19.5453,VALID,29,VALID,0.142969,
2009-11-25, 02:55:04,VALID,917.359,VALID,0,VALID,92.8989,VALID,0,VALID,19.5438,VALID,29,VALID,0.744531,
2009-11-25, 02:56:04,VALID,917.341,VALID,0,VALID,92.9676,VALID,0,VALID,19.5258,VALID,29,VALID,0.708594,
2009-11-25, 02:57:04,VALID,917.391,VALID,0,VALID,92.9904,VALID,0,VALID,19.5063,VALID,29,VALID,0.667969,
2009-11-25, 02:58:04,VALID,917.402,VALID,0,VALID,93.0972,VALID,0,VALID,19.4868,VALID,29,VALID,0.274609,
2009-11-25, 02:59:04,VALID,917.378,VALID,0,VALID,93.1429,VALID,0,VALID,19.4868,VALID,29,VALID,0.139062,
2009-11-25, 03:00:04,VALID,917.37,VALID,0,VALID,93.2725,VALID,0,VALID,19.4868,VALID,29,VALID,0.720312,
2009-11-25, 03:01:04,VALID,917.392,VALID,0,VALID,93.2954,VALID,0,VALID,19.4868,VALID,29,VALID,0.274219,
2009-11-25, 03:02:04,VALID,917.361,VALID,0,VALID,93.3564,VALID,0,VALID,19.4868,VALID,29,VALID,0.666016,
2009-11-25, 03:03:04,VALID,917.335,VALID,0,VALID,93.3868,VALID,0,VALID,19.4478,VALID,29,VALID,0.512109,
2009-11-25, 03:04:04,VALID,917.35,VALID,0,VALID,93.3945,VALID,0.107441,VALID,19.4673,VALID,29,VALID,0.662891,
2009-11-25, 03:05:04,VALID,917.334,VALID,0,VALID,93.5088,VALID,0,VALID,19.4658,VALID,30,VALID,0.254687,
2009-11-25, 03:06:04,VALID,917.344,VALID,0,VALID,93.4707,VALID,0,VALID,19.4658,VALID,30,VALID,0.233984,
2009-11-25, 03:07:04,VALID,917.346,VALID,0,VALID,93.3716,VALID,0,VALID,19.4868,VALID,30,VALID,0.389062,
2009-11-25, 03:08:04,VALID,917.303,VALID,0,VALID,93.2801,VALID,0,VALID,19.4658,VALID,30,VALID,0.238672,
2009-11-25, 03:09:04,VALID,917.265,VALID,0,VALID,93.4631,VALID,0,VALID,19.4658,VALID,30,VALID,0.703125,
2009-11-25, 03:10:04,VALID,917.281,VALID,0,VALID,93.6079,VALID,0,VALID,19.4658,VALID,30,VALID,0.226953,
2009-11-25, 03:11:04,VALID,917.254,VALID,0,VALID,93.6765,VALID,0,VALID,19.4463,VALID,30,VALID,0.304688,
2009-11-25, 03:12:04,VALID,917.25,VALID,0,VALID,93.7223,VALID,0,VALID,19.4268,VALID,30,VALID,0.505859,
2009-11-25, 03:13:04,VALID,917.257,VALID,0,VALID,93.8671,VALID,0.107441,VALID,19.4478,VALID,31,VALID,0.453516,
2009-11-25, 03:14:04,VALID,917.279,VALID,0,VALID,93.9815,VALID,0,VALID,19.3879,VALID,31,VALID,0.100781,
2009-11-25, 03:15:04,VALID,917.283,VALID,0,VALID,93.9357,VALID,0,VALID,19.3893,VALID,31,VALID,0.653516,
2009-11-25, 03:16:04,VALID,917.276,VALID,0,VALID,93.9586,VALID,0,VALID,19.3893,VALID,31,VALID,0.854688,
2009-11-25, 03:17:04,VALID,917.299,VALID,0,VALID,93.9662,VALID,0,VALID,19.3684,VALID,31,VALID,0.989062,
2009-11-25, 03:18:04,VALID,917.301,VALID,0,VALID,93.9967,VALID,0,VALID,19.4103,VALID,31,VALID,0.244531,
2009-11-25, 03:19:04,VALID,917.326,VALID,0,VALID,93.8976,VALID,0,VALID,19.3893,VALID,31,VALID,0.505859,
2009-11-25, 03:20:04,VALID,917.308,VALID,0,VALID,93.8671,VALID,0,VALID,19.3698,VALID,31,VALID,0.0195313,
2009-11-25, 03:21:04,VALID,917.285,VALID,0,VALID,93.8671,VALID,0,VALID,19.3503,VALID,31,VALID,0.760938,
2009-11-25, 03:22:04,VALID,917.314,VALID,0,VALID,93.951,VALID,0,VALID,19.3308,VALID,31,VALID,0.201172,
2009-11-25, 03:23:04,VALID,917.296,VALID,0,VALID,93.9281,VALID,0,VALID,19.2918,VALID,31,VALID,0.832031,
2009-11-25, 03:24:04,VALID,917.287,VALID,0,VALID,94.0272,VALID,0,VALID,19.2918,VALID,36,VALID,1.33008,
2009-11-25, 03:25:04,VALID,917.279,VALID,0,VALID,94.0348,VALID,0,VALID,19.2723,VALID,38,VALID,1.30469,
2009-11-25, 03:26:04,VALID,917.274,VALID,0,VALID,93.9815,VALID,0,VALID,19.2918,VALID,41,VALID,1.35586,
2009-11-25, 03:27:04,VALID,917.249,VALID,0,VALID,93.8671,VALID,0,VALID,19.3308,VALID,20,VALID,1.72422,
2009-11-25, 03:28:04,VALID,917.228,VALID,0,VALID,93.7223,VALID,0,VALID,19.3099,VALID,18,VALID,1.39375,
2009-11-25, 03:29:04,VALID,917.27,VALID,0,VALID,93.7528,VALID,0,VALID,19.3308,VALID,32,VALID,1.46719,
2009-11-25, 03:30:04,VALID,917.262,VALID,0,VALID,93.5622,VALID,0,VALID,19.3308,VALID,34,VALID,1.15742,
2009-11-25, 03:31:04,VALID,917.282,VALID,0,VALID,93.3411,VALID,0,VALID,19.3308,VALID,51,VALID,1.10586,
2009-11-25, 03:32:04,VALID,917.297,VALID,0,VALID,93.425,VALID,0,VALID,19.3308,VALID,51,VALID,0.846484,
2009-11-25, 03:33:04,VALID,917.256,VALID,0,VALID,93.5088,VALID,0,VALID,19.3113,VALID,55,VALID,1.40781,
2009-11-25, 03:34:04,VALID,917.265,VALID,0,VALID,93.5546,VALID,0,VALID,19.3113,VALID,55,VALID,0.0847656,
2009-11-25, 03:35:04,VALID,917.281,VALID,0,VALID,93.4936,VALID,0,VALID,19.2723,VALID,55,VALID,0.801172,
2009-11-25, 03:36:04,VALID,917.298,VALID,0,VALID,93.768,VALID,0,VALID,19.2528,VALID,55,VALID,0.532031,
2009-11-25, 03:37:04,VALID,917.308,VALID,0,VALID,94.0196,VALID,0,VALID,19.2139,VALID,55,VALID,0.99375,
2009-11-25, 03:38:04,VALID,917.291,VALID,0,VALID,94.1873,VALID,0,VALID,19.1734,VALID,55,VALID,1.03281,
2009-11-25, 03:39:04,VALID,917.32,VALID,0,VALID,94.3169,VALID,0,VALID,19.1554,VALID,55,VALID,0.448047,
2009-11-25, 03:40:04,VALID,917.304,VALID,0,VALID,94.1949,VALID,0,VALID,19.1554,VALID,55,VALID,0.3125,
2009-11-25, 03:41:04,VALID,917.303,VALID,0,VALID,94.4008,VALID,0,VALID,19.1554,VALID,55,VALID,0.239063,
2009-11-25, 03:42:04,VALID,917.27,VALID,0,VALID,94.3779,VALID,0,VALID,19.1164,VALID,55,VALID,1.11914,
2009-11-25, 03:43:04,VALID,917.24,VALID,0,VALID,94.5075,VALID,0,VALID,19.0759,VALID,55,VALID,0.865625,
2009-11-25, 03:44:04,VALID,917.272,VALID,0,VALID,94.66,VALID,0,VALID,19.0969,VALID,55,VALID,0.969922,
2009-11-25, 03:45:04,VALID,917.28,VALID,0,VALID,94.538,VALID,0,VALID,19.1164,VALID,55,VALID,0.295312,
2009-11-25, 03:46:04,VALID,917.318,VALID,0,VALID,94.3245,VALID,0,VALID,19.0969,VALID,55,VALID,0.684766,